Location: Dappach
(48.9767°N, 9.6998°E)
Time: 20:47:49
(UTC+00:00)

COSMOS 2428 - Pass Details

Date: 20 August 2024
Orbit: 842 x 857 km, 70.9° (Epoch: 09 September)

Event Time Altitude Azimuth Distance (km) Brightness Sun altitude
Exits shadow 01:51:34 10° 283° (WNW) 2,456 4.9 -20.7°
Maximum altitude 01:55:14 18° 324° (NW) 1,991 4.8 -20.3°
Drops below altitude 10° 01:59:02 10° 6° (N) 2,496 5.9 -19.9°
Sets 02:02:23 0° 25° (NNE) 3,438 7.3 -19.5°
